{"data":{"norad_id":59717,"intl_designator":"2024-088K","name":"STARLINK-11084 [DTC]","alt_names":[],"object_type":"PAYLOAD","status":"ACTIVE","operator":null,"country":"US","launch_date":"2024-05-10","launch_site_code":"AFWTR","launch_vehicle":null,"mission":null,"orbit_class":"UNKNOWN","rcs_meters":null,"size_class":null,"mass_kg":null,"dimensions":null,"purposes":["comms"],"wikipedia_slug":null,"has_3d_model":false,"image_url":null,"decayed_at":null,"tle_current":{"epoch":"2026-09-21T17:22:17.939136Z","epoch_age_seconds":65650,"freshness":"FRESH","line1":"1 59717U 24088K   26264.72381874 -.00000014  00000+0  47397-5 0  9991","line2":"2 59717  53.1588  79.7422 0000873  71.4365 288.6747 15.69708549137069","mean_motion":15.69708549,"eccentricity":8.73e-5,"inclination_deg":53.1588,"raan_deg":79.7422,"arg_perigee_deg":71.4365,"mean_anomaly_deg":288.6747,"bstar":4.7397e-6,"rev_number":13706,"period_min":91.736775015806,"perigee_km":359.14268676167,"apogee_km":360.31911849747,"semimajor_km":6737.8679026296,"source":"CELESTRAK","updated_at":"2026-09-22T09:00:49.059089Z"}}}